TimeEDT,TemperatureF,Dew PointF,Humidity,Sea Level PressureIn,VisibilityMPH,Wind Direction,Wind SpeedMPH,Gust SpeedMPH,PrecipitationIn,Events,Conditions,WindDirDegrees,DateUTC
12:15 AM,51.4,39.0,63,29.93,10.0,Calm,Calm,-,N/A,,Scattered Clouds,0,2013-03-16 04:15:00
12:35 AM,49.3,39.0,68,29.92,10.0,SSW,3.5,-,N/A,,Mostly Cloudy,210,2013-03-16 04:35:00
12:55 AM,49.5,40.1,70,29.91,10.0,West,3.5,-,N/A,,Overcast,260,2013-03-16 04:55:00
1:15 AM,54.5,38.1,54,29.92,10.0,North,6.9,-,N/A,,Overcast,360,2013-03-16 05:15:00
1:35 AM,54.9,40.6,59,29.90,10.0,Calm,Calm,-,N/A,,Light Drizzle,0,2013-03-16 05:35:00
1:55 AM,52.9,42.4,68,29.90,10.0,WNW,4.6,-,N/A,,Overcast,290,2013-03-16 05:55:00
2:15 AM,59.0,39.2,48,29.90,10.0,WSW,4.6,-,N/A,,Mostly Cloudy,240,2013-03-16 06:15:00
2:35 AM,59.0,38.7,47,29.90,10.0,SW,3.5,-,N/A,,Scattered Clouds,230,2013-03-16 06:35:00
2:55 AM,57.9,39.4,50,29.89,10.0,SW,6.9,-,N/A,,Clear,220,2013-03-16 06:55:00
3:15 AM,59.2,39.2,48,29.89,10.0,SW,5.8,-,N/A,,Clear,220,2013-03-16 07:15:00
3:35 AM,59.0,39.2,48,29.89,10.0,SW,4.6,-,N/A,,Clear,230,2013-03-16 07:35:00
3:55 AM,57.7,39.4,50,29.88,10.0,SW,3.5,-,N/A,,Clear,230,2013-03-16 07:55:00
4:15 AM,58.3,39.6,50,29.88,10.0,SSW,4.6,-,N/A,,Clear,200,2013-03-16 08:15:00
4:35 AM,56.5,39.9,54,29.87,10.0,Calm,Calm,-,N/A,,Clear,0,2013-03-16 08:35:00
4:55 AM,54.9,40.1,58,29.86,10.0,South,3.5,-,N/A,,Clear,190,2013-03-16 08:55:00
5:15 AM,55.8,40.1,56,29.86,10.0,Calm,Calm,-,N/A,,Clear,0,2013-03-16 09:15:00
5:35 AM,55.9,40.1,55,29.87,10.0,SW,3.5,-,N/A,,Clear,230,2013-03-16 09:35:00
5:55 AM,56.3,40.3,55,29.88,10.0,Calm,Calm,-,N/A,,Clear,0,2013-03-16 09:55:00
6:15 AM,56.8,40.1,54,29.88,10.0,Calm,Calm,-,N/A,,Clear,0,2013-03-16 10:15:00
6:35 AM,55.2,40.5,58,29.88,10.0,Calm,Calm,-,N/A,,Scattered Clouds,0,2013-03-16 10:35:00
6:55 AM,57.4,40.3,53,29.89,10.0,South,3.5,-,N/A,,Scattered Clouds,190,2013-03-16 10:55:00
7:15 AM,57.4,40.3,53,29.89,10.0,SW,4.6,-,N/A,,Clear,230,2013-03-16 11:15:00
7:35 AM,56.7,40.5,55,29.88,10.0,South,3.5,-,N/A,,Clear,190,2013-03-16 11:35:00
7:55 AM,57.4,40.3,53,29.88,10.0,SSW,4.6,-,N/A,,Clear,200,2013-03-16 11:55:00
8:15 AM,57.7,40.5,53,29.88,10.0,SSW,4.6,-,N/A,,Clear,200,2013-03-16 12:15:00
8:35 AM,58.3,40.5,52,29.88,10.0,South,5.8,-,N/A,,Clear,190,2013-03-16 12:35:00
8:55 AM,59.9,41.0,50,29.88,10.0,SSW,5.8,-,N/A,,Clear,200,2013-03-16 12:55:00
9:15 AM,61.7,41.0,47,29.89,10.0,SSW,5.8,-,N/A,,Clear,200,2013-03-16 13:15:00
9:35 AM,62.2,41.0,46,29.88,10.0,South,5.8,-,N/A,,Clear,190,2013-03-16 13:35:00
9:55 AM,64.6,41.2,42,29.88,10.0,South,8.1,-,N/A,,Clear,190,2013-03-16 13:55:00
10:15 AM,65.3,41.4,42,29.88,10.0,SSW,6.9,-,N/A,,Clear,210,2013-03-16 14:15:00
10:35 AM,67.1,41.2,39,29.88,10.0,SSW,8.1,-,N/A,,Clear,200,2013-03-16 14:35:00
10:55 AM,68.5,40.6,36,29.87,10.0,SSW,9.2,-,N/A,,Clear,210,2013-03-16 14:55:00
11:15 AM,69.6,40.8,35,29.86,10.0,SW,9.2,-,N/A,,Clear,220,2013-03-16 15:15:00
11:35 AM,70.5,40.6,34,29.85,10.0,SW,10.4,-,N/A,,Clear,220,2013-03-16 15:35:00
11:55 AM,72.1,40.8,32,29.85,10.0,SSW,12.7,-,N/A,,Clear,200,2013-03-16 15:55:00
12:15 PM,73.0,40.8,31,29.83,10.0,SSW,5.8,21.9,N/A,,Clear,210,2013-03-16 16:15:00
12:35 PM,73.2,40.5,31,29.82,10.0,SSW,8.1,18.4,N/A,,Clear,210,2013-03-16 16:35:00
12:55 PM,74.5,41.2,30,29.82,10.0,SSW,12.7,18.4,N/A,,Clear,200,2013-03-16 16:55:00
1:15 PM,75.7,41.2,29,29.81,10.0,SSW,12.7,17.3,N/A,,Clear,200,2013-03-16 17:15:00
1:35 PM,76.3,41.0,28,29.80,10.0,South,9.2,17.3,N/A,,Clear,180,2013-03-16 17:35:00
1:55 PM,77.4,40.3,26,29.80,10.0,WSW,13.8,20.7,N/A,,Scattered Clouds,250,2013-03-16 17:55:00
2:15 PM,77.0,39.2,26,29.79,10.0,WSW,10.4,18.4,N/A,,Scattered Clouds,240,2013-03-16 18:15:00
2:35 PM,78.8,38.8,24,29.78,10.0,West,11.5,17.3,N/A,,Mostly Cloudy,260,2013-03-16 18:35:00
2:55 PM,77.9,38.7,24,29.78,10.0,West,10.4,-,N/A,,Scattered Clouds,260,2013-03-16 18:55:00
3:15 PM,78.4,38.7,24,29.77,10.0,SW,10.4,17.3,N/A,,Scattered Clouds,230,2013-03-16 19:15:00
3:35 PM,78.4,37.9,23,29.76,10.0,WSW,12.7,18.4,N/A,,Clear,240,2013-03-16 19:35:00
3:55 PM,79.7,38.1,23,29.76,10.0,WSW,10.4,18.4,N/A,,Clear,250,2013-03-16 19:55:00
4:15 PM,80.1,37.9,22,29.75,10.0,SW,15.0,21.9,N/A,,Clear,220,2013-03-16 20:15:00
4:35 PM,80.2,37.2,21,29.75,10.0,WSW,11.5,17.3,N/A,,Scattered Clouds,250,2013-03-16 20:35:00
4:55 PM,80.6,37.0,21,29.75,10.0,West,13.8,19.6,N/A,,Scattered Clouds,270,2013-03-16 20:55:00
5:15 PM,80.1,37.0,21,29.75,10.0,West,9.2,-,N/A,,Scattered Clouds,260,2013-03-16 21:15:00
5:35 PM,80.2,35.2,20,29.75,10.0,West,11.5,19.6,N/A,,Scattered Clouds,260,2013-03-16 21:35:00
5:55 PM,79.7,35.8,21,29.75,10.0,West,11.5,21.9,N/A,,Clear,270,2013-03-16 21:55:00
6:15 PM,79.0,35.8,21,29.76,10.0,West,13.8,23.0,N/A,,Clear,280,2013-03-16 22:15:00
6:35 PM,78.8,37.2,22,29.77,10.0,West,13.8,21.9,N/A,,Scattered Clouds,280,2013-03-16 22:35:00
6:55 PM,77.2,37.8,24,29.78,10.0,West,10.4,24.2,N/A,,Scattered Clouds,270,2013-03-16 22:55:00
7:15 PM,76.3,38.5,26,29.80,10.0,West,10.4,23.0,N/A,,Scattered Clouds,280,2013-03-16 23:15:00
7:35 PM,75.7,39.0,27,29.81,10.0,West,18.4,23.0,N/A,,Scattered Clouds,280,2013-03-16 23:35:00
7:55 PM,74.8,39.6,28,29.83,10.0,West,15.0,27.6,N/A,,Scattered Clouds,270,2013-03-16 23:55:00
8:15 PM,73.9,40.3,30,29.84,10.0,West,15.0,20.7,N/A,,Clear,280,2013-03-17 00:15:00
8:35 PM,73.0,41.0,31,29.85,10.0,WNW,11.5,-,N/A,,Clear,290,2013-03-17 00:35:00
8:55 PM,71.8,41.7,34,29.85,10.0,West,8.1,-,N/A,,Clear,270,2013-03-17 00:55:00
9:15 PM,71.4,42.3,35,29.86,10.0,West,10.4,16.1,N/A,,Clear,260,2013-03-17 01:15:00
9:35 PM,70.9,42.8,36,29.87,10.0,West,8.1,-,N/A,,Clear,270,2013-03-17 01:35:00
9:55 PM,70.2,43.3,38,29.88,10.0,WSW,4.6,-,N/A,,Clear,240,2013-03-17 01:55:00
10:15 PM,70.0,43.5,38,29.89,10.0,Calm,Calm,-,N/A,,Clear,0,2013-03-17 02:15:00
10:35 PM,69.6,43.9,39,29.89,10.0,SW,4.6,-,N/A,,Scattered Clouds,220,2013-03-17 02:35:00
10:55 PM,68.4,44.2,42,29.90,10.0,West,3.5,-,N/A,,Clear,260,2013-03-17 02:55:00
11:15 PM,64.2,45.1,50,29.90,10.0,WSW,3.5,-,N/A,,Clear,250,2013-03-17 03:15:00
11:35 PM,65.7,45.3,48,29.91,10.0,West,3.5,-,N/A,,Scattered Clouds,270,2013-03-17 03:35:00
11:55 PM,68.0,44.8,43,29.91,10.0,WNW,4.6,-,N/A,,Mostly Cloudy,300,2013-03-17 03:55:00